,,,PA_Meas_PMT16A,,PR_Meas_QMR101_102,,RH_Meas_QMH101,,SR_Meas_QMS101,,TA_Meas_QMH101,,GenWind,,GenWind,
date,time,status,PA,status,PR,status,RH,status,SR,status,TA,status,DirAvg,status,SpdAvg,
2012-07-18, 00:00:04,VALID,1001.08,VALID,0,VALID,94.5691,VALID,0,VALID,24.2653,VALID,158,VALID,0.544531,
2012-07-18, 00:01:04,VALID,1001.07,VALID,0,VALID,94.6912,VALID,0,VALID,24.2653,VALID,158,VALID,0.140625,
2012-07-18, 00:02:04,VALID,1001.06,VALID,0,VALID,94.8209,VALID,0,VALID,24.2458,VALID,158,VALID,0,
2012-07-18, 00:03:04,VALID,1001.05,VALID,0,VALID,94.8972,VALID,0,VALID,24.2263,VALID,158,VALID,0.169141,
2012-07-18, 00:04:04,VALID,1001.04,VALID,0,VALID,94.9888,VALID,0,VALID,24.2067,VALID,158,VALID,0,
2012-07-18, 00:05:04,VALID,1001.04,VALID,0,VALID,95.0269,VALID,0,VALID,24.1872,VALID,158,VALID,0,
2012-07-18, 00:06:04,VALID,1001.01,VALID,0,VALID,95.0803,VALID,0,VALID,24.1677,VALID,158,VALID,0,
2012-07-18, 00:07:04,VALID,1001.03,VALID,0,VALID,95.1185,VALID,0,VALID,24.2086,VALID,158,VALID,0,
2012-07-18, 00:08:04,VALID,1001.05,VALID,0,VALID,95.1871,VALID,0,VALID,24.1872,VALID,158,VALID,0,
2012-07-18, 00:09:04,VALID,1001.01,VALID,0,VALID,95.2329,VALID,0,VALID,24.1677,VALID,158,VALID,0.0578125,
2012-07-18, 00:10:04,VALID,1001.01,VALID,0,VALID,95.2711,VALID,0,VALID,24.1677,VALID,158,VALID,0.173438,
2012-07-18, 00:11:04,VALID,1001,VALID,0,VALID,95.3016,VALID,0,VALID,24.1677,VALID,158,VALID,0.218359,
2012-07-18, 00:12:04,VALID,1001.02,VALID,0,VALID,95.3397,VALID,0,VALID,24.1677,VALID,158,VALID,0.308203,
2012-07-18, 00:13:04,VALID,1000.98,VALID,0,VALID,95.3397,VALID,0,VALID,24.1872,VALID,158,VALID,0.36875,
2012-07-18, 00:14:04,VALID,1000.92,VALID,0,VALID,95.3321,VALID,0,VALID,24.1872,VALID,158,VALID,0.323828,
2012-07-18, 00:15:04,VALID,1000.93,VALID,0,VALID,95.3092,VALID,0,VALID,24.1872,VALID,158,VALID,0.453125,
2012-07-18, 00:16:04,VALID,1000.89,VALID,0,VALID,95.2863,VALID,0,VALID,24.1677,VALID,158,VALID,0.595312,
2012-07-18, 00:17:04,VALID,1000.89,VALID,0,VALID,95.2177,VALID,0,VALID,24.1482,VALID,117,VALID,0.890625,
2012-07-18, 00:18:04,VALID,1000.87,VALID,0,VALID,95.21,VALID,0,VALID,24.1482,VALID,115,VALID,0.978125,
2012-07-18, 00:19:04,VALID,1000.9,VALID,0,VALID,95.2253,VALID,0,VALID,24.1677,VALID,115,VALID,0.908203,
2012-07-18, 00:20:04,VALID,1000.88,VALID,0,VALID,95.1948,VALID,0,VALID,24.1872,VALID,115,VALID,0.988281,
2012-07-18, 00:21:04,VALID,1000.87,VALID,0,VALID,95.2024,VALID,0,VALID,24.2067,VALID,115,VALID,1.05781,
2012-07-18, 00:22:04,VALID,1000.89,VALID,0,VALID,95.2253,VALID,0,VALID,24.1872,VALID,116,VALID,1.00742,
2012-07-18, 00:23:04,VALID,1000.88,VALID,0,VALID,95.21,VALID,0,VALID,24.2067,VALID,116,VALID,0.976172,
2012-07-18, 00:24:04,VALID,1000.87,VALID,0,VALID,95.2024,VALID,0,VALID,24.2263,VALID,116,VALID,1.07422,
2012-07-18, 00:25:04,VALID,1000.86,VALID,0,VALID,95.1566,VALID,0,VALID,24.2671,VALID,116,VALID,1.13945,
2012-07-18, 00:26:04,VALID,1000.87,VALID,0,VALID,95.1261,VALID,0,VALID,24.2458,VALID,117,VALID,1.08789,
2012-07-18, 00:27:04,VALID,1000.85,VALID,0,VALID,95.0803,VALID,0,VALID,24.2458,VALID,129,VALID,1.04688,
2012-07-18, 00:28:04,VALID,1000.84,VALID,0,VALID,95.0269,VALID,0,VALID,24.2476,VALID,129,VALID,0.941797,
2012-07-18, 00:29:04,VALID,1000.81,VALID,0,VALID,95.0193,VALID,0,VALID,24.2476,VALID,129,VALID,0.811328,
2012-07-18, 00:30:04,VALID,1000.84,VALID,0,VALID,94.9811,VALID,0,VALID,24.2263,VALID,129,VALID,1.125,
2012-07-18, 00:31:04,VALID,1000.83,VALID,0,VALID,94.9048,VALID,0,VALID,24.2067,VALID,122,VALID,1.28594,
2012-07-18, 00:32:04,VALID,1000.84,VALID,0,VALID,94.8285,VALID,0,VALID,24.2067,VALID,122,VALID,1.16133,
2012-07-18, 00:33:04,VALID,1000.83,VALID,0,VALID,94.7599,VALID,0,VALID,24.2067,VALID,122,VALID,1.06055,
2012-07-18, 00:34:04,VALID,1000.8,VALID,0,VALID,94.6454,VALID,0,VALID,24.2067,VALID,122,VALID,1.01797,
2012-07-18, 00:35:04,VALID,1000.81,VALID,0,VALID,94.5539,VALID,0,VALID,24.2281,VALID,127,VALID,0.817969,
2012-07-18, 00:36:04,VALID,1000.81,VALID,0,VALID,94.5081,VALID,0,VALID,24.2067,VALID,127,VALID,0.78125,
2012-07-18, 00:37:04,VALID,1000.79,VALID,0,VALID,94.4165,VALID,0,VALID,24.2263,VALID,137,VALID,0.872656,
2012-07-18, 00:38:04,VALID,1000.79,VALID,0,VALID,94.3479,VALID,0,VALID,24.2263,VALID,138,VALID,0.833203,
2012-07-18, 00:39:04,VALID,1000.81,VALID,0,VALID,94.2487,VALID,0,VALID,24.2067,VALID,138,VALID,0.5125,
2012-07-18, 00:40:04,VALID,1000.81,VALID,0,VALID,94.1648,VALID,0,VALID,24.2263,VALID,138,VALID,0.469922,
2012-07-18, 00:41:04,VALID,1000.78,VALID,0,VALID,94.1114,VALID,0,VALID,24.2458,VALID,138,VALID,0.40625,
2012-07-18, 00:42:04,VALID,1000.81,VALID,0,VALID,94.0427,VALID,0,VALID,24.2653,VALID,138,VALID,0.246094,
2012-07-18, 00:43:04,VALID,1000.8,VALID,0,VALID,94.0045,VALID,0,VALID,24.2866,VALID,138,VALID,0,
2012-07-18, 00:44:04,VALID,1000.79,VALID,0,VALID,93.8825,VALID,0,VALID,24.2653,VALID,138,VALID,0,
2012-07-18, 00:45:04,VALID,1000.77,VALID,0,VALID,93.8138,VALID,0,VALID,24.2653,VALID,138,VALID,0,
2012-07-18, 00:46:04,VALID,1000.8,VALID,0,VALID,93.7223,VALID,0,VALID,24.3062,VALID,138,VALID,0,
2012-07-18, 00:47:04,VALID,1000.81,VALID,0,VALID,93.6536,VALID,0,VALID,24.2848,VALID,138,VALID,0,
2012-07-18, 00:48:04,VALID,1000.82,VALID,0,VALID,93.6688,VALID,0,VALID,24.2848,VALID,138,VALID,0.176172,
2012-07-18, 00:49:04,VALID,1000.82,VALID,0,VALID,93.44,VALID,0,VALID,24.2653,VALID,129,VALID,0.713672,
2012-07-18, 00:50:04,VALID,1000.81,VALID,0,VALID,93.2111,VALID,0,VALID,24.3043,VALID,129,VALID,0.701953,
2012-07-18, 00:51:04,VALID,1000.79,VALID,0,VALID,92.7685,VALID,0,VALID,24.3647,VALID,130,VALID,0.935938,
2012-07-18, 00:52:04,VALID,1000.79,VALID,0,VALID,92.3337,VALID,0,VALID,24.3433,VALID,131,VALID,1.28281,
2012-07-18, 00:53:04,VALID,1000.8,VALID,0,VALID,91.9674,VALID,0,VALID,24.3842,VALID,123,VALID,1.06445,
2012-07-18, 00:54:04,VALID,1000.77,VALID,0,VALID,91.6775,VALID,0,VALID,24.3824,VALID,117,VALID,1.34492,
2012-07-18, 00:55:04,VALID,1000.77,VALID,0,VALID,91.2197,VALID,0,VALID,24.4019,VALID,121,VALID,1.70938,
2012-07-18, 00:56:04,VALID,1000.74,VALID,0,VALID,90.968,VALID,0,VALID,24.4409,VALID,123,VALID,1.49766,
2012-07-18, 00:57:04,VALID,1000.71,VALID,0,VALID,90.7543,VALID,0,VALID,24.4409,VALID,124,VALID,1.49766,
2012-07-18, 00:58:04,VALID,1000.71,VALID,0,VALID,90.7238,VALID,0,VALID,24.48,VALID,128,VALID,1.3832,
2012-07-18, 00:59:04,VALID,1000.72,VALID,0,VALID,90.6323,VALID,0,VALID,24.48,VALID,128,VALID,1.4793,
2012-07-18, 01:00:04,VALID,1000.68,VALID,0,VALID,90.3957,VALID,0,VALID,24.4995,VALID,127,VALID,1.56758,
2012-07-18, 01:01:04,VALID,1000.67,VALID,0,VALID,90.0753,VALID,0,VALID,24.4995,VALID,128,VALID,1.74531,
2012-07-18, 01:02:04,VALID,1000.66,VALID,0,VALID,89.8693,VALID,0,VALID,24.5599,VALID,129,VALID,1.57969,
2012-07-18, 01:03:04,VALID,1000.65,VALID,0,VALID,89.6862,VALID,0,VALID,24.558,VALID,135,VALID,1.4707,
2012-07-18, 01:04:04,VALID,1000.64,VALID,0,VALID,89.5336,VALID,0,VALID,24.5989,VALID,132,VALID,1.56445,
2012-07-18, 01:05:04,VALID,1000.63,VALID,0,VALID,89.7014,VALID,0,VALID,24.5775,VALID,138,VALID,1.29961,
2012-07-18, 01:06:04,VALID,1000.62,VALID,0,VALID,89.6099,VALID,0,VALID,24.5775,VALID,138,VALID,1.32266,
2012-07-18, 01:07:04,VALID,1000.64,VALID,0,VALID,89.6633,VALID,0,VALID,24.5989,VALID,133,VALID,1.49531,
2012-07-18, 01:08:04,VALID,1000.59,VALID,0,VALID,89.648,VALID,0,VALID,24.5989,VALID,134,VALID,1.28242,
2012-07-18, 01:09:04,VALID,1000.6,VALID,0,VALID,89.6557,VALID,0,VALID,24.5989,VALID,131,VALID,1.325,
2012-07-18, 01:10:04,VALID,1000.6,VALID,0,VALID,89.648,VALID,0,VALID,24.5775,VALID,131,VALID,1.1582,
2012-07-18, 01:11:04,VALID,1000.59,VALID,0,VALID,89.6023,VALID,0,VALID,24.5775,VALID,131,VALID,1.08516,
2012-07-18, 01:12:04,VALID,1000.58,VALID,0,VALID,89.4191,VALID,0,VALID,24.5971,VALID,130,VALID,1.36133,
2012-07-18, 01:13:04,VALID,1000.57,VALID,0,VALID,89.3963,VALID,0,VALID,24.5971,VALID,131,VALID,1.22812,
2012-07-18, 01:14:04,VALID,1000.59,VALID,0,VALID,89.3581,VALID,0,VALID,24.5971,VALID,126,VALID,1.44102,
2012-07-18, 01:15:04,VALID,1000.6,VALID,0,VALID,89.1979,VALID,0,VALID,24.6184,VALID,128,VALID,1.51641,
2012-07-18, 01:16:04,VALID,1000.59,VALID,0,VALID,89.2818,VALID,0,VALID,24.6184,VALID,127,VALID,1.06797,
2012-07-18, 01:17:04,VALID,1000.6,VALID,0,VALID,89.4802,VALID,0,VALID,24.6184,VALID,115,VALID,1.03047,
2012-07-18, 01:18:04,VALID,1000.61,VALID,0,VALID,89.7777,VALID,0,VALID,24.5775,VALID,115,VALID,0.816016,
2012-07-18, 01:19:04,VALID,1000.6,VALID,0,VALID,90.0448,VALID,0,VALID,24.5794,VALID,107,VALID,0.817187,
2012-07-18, 01:20:04,VALID,1000.59,VALID,0,VALID,90.3805,VALID,0,VALID,24.5599,VALID,104,VALID,1.12852,
2012-07-18, 01:21:04,VALID,1000.63,VALID,0,VALID,90.6551,VALID,0,VALID,24.5404,VALID,104,VALID,0.882031,
2012-07-18, 01:22:04,VALID,1000.64,VALID,0,VALID,91.0214,VALID,0,VALID,24.5404,VALID,104,VALID,0.657812,
2012-07-18, 01:23:04,VALID,1000.62,VALID,0,VALID,91.3418,VALID,0,VALID,24.5209,VALID,104,VALID,0.806641,
2012-07-18, 01:24:04,VALID,1000.64,VALID,0,VALID,91.502,VALID,0,VALID,24.5209,VALID,104,VALID,0.620703,
2012-07-18, 01:25:04,VALID,1000.64,VALID,0,VALID,91.3952,VALID,0,VALID,24.5013,VALID,104,VALID,0.820313,
2012-07-18, 01:26:04,VALID,1000.67,VALID,0,VALID,91.3571,VALID,0,VALID,24.48,VALID,108,VALID,0.891797,
2012-07-18, 01:27:04,VALID,1000.65,VALID,0,VALID,91.1587,VALID,0,VALID,24.48,VALID,104,VALID,0.574219,
2012-07-18, 01:28:04,VALID,1000.64,VALID,0,VALID,90.8764,VALID,0,VALID,24.5013,VALID,107,VALID,1.02422,
2012-07-18, 01:29:04,VALID,1000.64,VALID,0,VALID,90.617,VALID,0,VALID,24.4995,VALID,124,VALID,0.872656,
2012-07-18, 01:30:04,VALID,1000.62,VALID,0,VALID,90.3805,VALID,0,VALID,24.5385,VALID,121,VALID,0.471875,
2012-07-18, 01:31:04,VALID,1000.64,VALID,0,VALID,90.3194,VALID,0,VALID,24.5385,VALID,121,VALID,0.410156,
2012-07-18, 01:32:04,VALID,1000.58,VALID,0,VALID,90.35,VALID,0,VALID,24.5385,VALID,121,VALID,0.153125,
2012-07-18, 01:33:04,VALID,1000.59,VALID,0,VALID,90.4339,VALID,0,VALID,24.5385,VALID,121,VALID,0.323828,
2012-07-18, 01:34:04,VALID,1000.57,VALID,0,VALID,90.4263,VALID,0,VALID,24.519,VALID,121,VALID,0.0960938,
2012-07-18, 01:35:04,VALID,1000.58,VALID,0,VALID,90.6628,VALID,0,VALID,24.519,VALID,121,VALID,0,
2012-07-18, 01:36:04,VALID,1000.56,VALID,0,VALID,90.7085,VALID,0,VALID,24.4995,VALID,121,VALID,0.274219,
2012-07-18, 01:37:04,VALID,1000.56,VALID,0,VALID,90.5788,VALID,0,VALID,24.48,VALID,121,VALID,0.129688,
2012-07-18, 01:38:04,VALID,1000.58,VALID,0,VALID,90.556,VALID,0,VALID,24.4604,VALID,121,VALID,0.355078,
2012-07-18, 01:39:04,VALID,1000.55,VALID,0,VALID,90.9909,VALID,0,VALID,24.4604,VALID,121,VALID,0.425,
2012-07-18, 01:40:04,VALID,1000.57,VALID,0,VALID,91.3647,VALID,0,VALID,24.4623,VALID,121,VALID,0.45,
2012-07-18, 01:41:04,VALID,1000.56,VALID,0,VALID,91.6165,VALID,0,VALID,24.4019,VALID,115,VALID,0.433203,
2012-07-18, 01:42:04,VALID,1000.55,VALID,0,VALID,91.7538,VALID,0,VALID,24.3433,VALID,115,VALID,0.38125,
2012-07-18, 01:43:04,VALID,1000.54,VALID,0,VALID,91.9293,VALID,0,VALID,24.3043,VALID,115,VALID,0.419531,
2012-07-18, 01:44:04,VALID,1000.53,VALID,0,VALID,92.1734,VALID,0,VALID,24.2653,VALID,115,VALID,0.409766,
2012-07-18, 01:45:04,VALID,1000.52,VALID,0,VALID,92.4863,VALID,0,VALID,24.2263,VALID,115,VALID,0.514453,
2012-07-18, 01:46:04,VALID,1000.52,VALID,0,VALID,92.8296,VALID,0,VALID,24.1872,VALID,115,VALID,0.483203,
2012-07-18, 01:47:04,VALID,1000.53,VALID,0,VALID,93.0814,VALID,0.104696,VALID,24.1482,VALID,115,VALID,0.430859,
2012-07-18, 01:48:04,VALID,1000.55,VALID,0,VALID,93.4171,VALID,0,VALID,24.1305,VALID,115,VALID,0.33125,
2012-07-18, 01:49:04,VALID,1000.55,VALID,0,VALID,93.6536,VALID,0,VALID,24.0701,VALID,115,VALID,0.0601562,
2012-07-18, 01:50:04,VALID,1000.53,VALID,0,VALID,93.8443,VALID,0.104696,VALID,24.0506,VALID,115,VALID,0.173047,
2012-07-18, 01:51:04,VALID,1000.6,VALID,0,VALID,93.9817,VALID,0,VALID,24.0311,VALID,115,VALID,0,
2012-07-18, 01:52:04,VALID,1000.59,VALID,0,VALID,94.0503,VALID,0.104696,VALID,24.0311,VALID,115,VALID,0.283984,
2012-07-18, 01:53:04,VALID,1000.56,VALID,0,VALID,94.0656,VALID,0,VALID,24.0329,VALID,115,VALID,0.267188,
2012-07-18, 01:54:04,VALID,1000.57,VALID,0,VALID,94.0122,VALID,0,VALID,24.0116,VALID,115,VALID,0.235938,
2012-07-18, 01:55:04,VALID,1000.59,VALID,0,VALID,94.0045,VALID,0,VALID,24.0134,VALID,115,VALID,0.220313,
2012-07-18, 01:56:04,VALID,1000.62,VALID,0,VALID,94.058,VALID,0,VALID,23.9921,VALID,115,VALID,0.316016,
2012-07-18, 01:57:04,VALID,1000.61,VALID,0,VALID,94.0656,VALID,0,VALID,23.9921,VALID,115,VALID,0.274219,
2012-07-18, 01:58:04,VALID,1000.62,VALID,0,VALID,94.0961,VALID,0,VALID,24.0116,VALID,115,VALID,0.266406,
2012-07-18, 01:59:04,VALID,1000.64,VALID,0,VALID,94.0122,VALID,0,VALID,23.9903,VALID,115,VALID,0.376563,
2012-07-18, 02:00:04,VALID,1000.62,VALID,0,VALID,93.8977,VALID,0.104696,VALID,24.0116,VALID,115,VALID,0.590625,
2012-07-18, 02:01:04,VALID,1000.63,VALID,0,VALID,93.7833,VALID,0,VALID,24.0701,VALID,115,VALID,0.465625,
2012-07-18, 02:02:04,VALID,1000.62,VALID,0,VALID,93.6612,VALID,0,VALID,24.1092,VALID,115,VALID,0.260547,
2012-07-18, 02:03:04,VALID,1000.61,VALID,0,VALID,93.5391,VALID,0,VALID,24.1092,VALID,115,VALID,0.0375,
2012-07-18, 02:04:04,VALID,1000.61,VALID,0,VALID,93.4018,VALID,0,VALID,24.15,VALID,115,VALID,0.0800781,
2012-07-18, 02:05:04,VALID,1000.63,VALID,0,VALID,93.3026,VALID,0,VALID,24.1482,VALID,115,VALID,0,
2012-07-18, 02:06:04,VALID,1000.6,VALID,0,VALID,93.3408,VALID,0,VALID,24.1482,VALID,115,VALID,0,
2012-07-18, 02:07:04,VALID,1000.61,VALID,0,VALID,93.356,VALID,0,VALID,24.1482,VALID,115,VALID,0,
2012-07-18, 02:08:04,VALID,1000.58,VALID,0,VALID,93.295,VALID,0,VALID,24.1287,VALID,115,VALID,0,
2012-07-18, 02:09:04,VALID,1000.61,VALID,0,VALID,93.2263,VALID,0.104696,VALID,24.1482,VALID,115,VALID,0,
2012-07-18, 02:10:04,VALID,1000.6,VALID,0,VALID,93.2034,VALID,0,VALID,24.1287,VALID,115,VALID,0,
2012-07-18, 02:11:04,VALID,1000.62,VALID,0,VALID,93.2874,VALID,0,VALID,24.1287,VALID,115,VALID,0,
2012-07-18, 02:12:04,VALID,1000.59,VALID,0,VALID,93.4323,VALID,0,VALID,24.1092,VALID,115,VALID,0.470313,
2012-07-18, 02:13:04,VALID,1000.6,VALID,0,VALID,93.5468,VALID,0,VALID,24.0701,VALID,115,VALID,0.303516,
2012-07-18, 02:14:04,VALID,1000.58,VALID,0,VALID,93.6307,VALID,0,VALID,24.0506,VALID,115,VALID,0.362109,
2012-07-18, 02:15:04,VALID,1000.58,VALID,0,VALID,93.6078,VALID,0,VALID,24.0506,VALID,115,VALID,0.201562,
2012-07-18, 02:16:04,VALID,1000.54,VALID,0,VALID,93.5391,VALID,0.104696,VALID,24.0506,VALID,115,VALID,0,
2012-07-18, 02:17:04,VALID,1000.53,VALID,0,VALID,93.4323,VALID,0.104696,VALID,24.0311,VALID,115,VALID,0.00273437,
2012-07-18, 02:18:04,VALID,1000.51,VALID,0,VALID,93.2721,VALID,0.104696,VALID,24.0311,VALID,115,VALID,0.0128906,
2012-07-18, 02:19:04,VALID,1000.48,VALID,0,VALID,93.3866,VALID,0,VALID,24.0506,VALID,115,VALID,0.01875,
2012-07-18, 02:20:04,VALID,1000.46,VALID,0,VALID,93.4628,VALID,0,VALID,24.0701,VALID,115,VALID,0.1125,
2012-07-18, 02:21:04,VALID,1000.47,VALID,0,VALID,93.3179,VALID,0,VALID,24.0506,VALID,115,VALID,0.482422,
2012-07-18, 02:22:04,VALID,1000.48,VALID,0,VALID,92.9745,VALID,0,VALID,24.0506,VALID,115,VALID,0.376172,
2012-07-18, 02:23:04,VALID,1000.5,VALID,0,VALID,92.532,VALID,0,VALID,24.0506,VALID,115,VALID,0.411719,
2012-07-18, 02:24:04,VALID,1000.49,VALID,0,VALID,92.1658,VALID,0.104696,VALID,24.0506,VALID,115,VALID,0.2875,
2012-07-18, 02:25:04,VALID,1000.49,VALID,0,VALID,92.1506,VALID,0.104696,VALID,24.0701,VALID,115,VALID,0.381641,
2012-07-18, 02:26:04,VALID,1000.53,VALID,0,VALID,91.5554,VALID,0,VALID,24.0506,VALID,119,VALID,0.904297,
2012-07-18, 02:27:04,VALID,1000.52,VALID,0,VALID,90.5483,VALID,0,VALID,24.1482,VALID,129,VALID,1.28477,
2012-07-18, 02:28:04,VALID,1000.53,VALID,0,VALID,89.3352,VALID,0,VALID,24.2653,VALID,117,VALID,1.22031,
2012-07-18, 02:29:04,VALID,1000.53,VALID,0,VALID,88.6714,VALID,0.104696,VALID,24.3629,VALID,128,VALID,0.930859,
2012-07-18, 02:30:04,VALID,1000.53,VALID,0,VALID,87.9695,VALID,0.104696,VALID,24.4409,VALID,125,VALID,1.22656,
2012-07-18, 02:31:04,VALID,1000.49,VALID,0,VALID,88.0458,VALID,0,VALID,24.48,VALID,125,VALID,0.770312,
2012-07-18, 02:32:04,VALID,1000.51,VALID,0,VALID,88.1068,VALID,0,VALID,24.5013,VALID,101,VALID,0.920703,
2012-07-18, 02:33:04,VALID,1000.49,VALID,0,VALID,87.9771,VALID,0,VALID,24.4995,VALID,113,VALID,1.13516,
2012-07-18, 02:34:04,VALID,1000.46,VALID,0,VALID,87.7788,VALID,0,VALID,24.558,VALID,127,VALID,0.987891,
2012-07-18, 02:35:04,VALID,1000.43,VALID,0,VALID,87.6796,VALID,0,VALID,24.558,VALID,118,VALID,0.640234,
2012-07-18, 02:36:04,VALID,1000.39,VALID,0,VALID,87.466,VALID,0,VALID,24.5775,VALID,118,VALID,0.805078,
2012-07-18, 02:37:04,VALID,1000.41,VALID,0,VALID,87.6643,VALID,0,VALID,24.5971,VALID,118,VALID,0.50625,
2012-07-18, 02:38:04,VALID,1000.37,VALID,0,VALID,87.2142,VALID,0,VALID,24.5971,VALID,109,VALID,0.750391,
2012-07-18, 02:39:04,VALID,1000.33,VALID,0,VALID,87.2218,VALID,0,VALID,24.5989,VALID,109,VALID,0.447266,
2012-07-18, 02:40:04,VALID,1000.34,VALID,0,VALID,87.2142,VALID,0.104696,VALID,24.5971,VALID,109,VALID,0.494531,
2012-07-18, 02:41:04,VALID,1000.3,VALID,0,VALID,87.3744,VALID,0,VALID,24.5775,VALID,109,VALID,0.164063,
2012-07-18, 02:42:04,VALID,1000.27,VALID,0,VALID,87.2371,VALID,0,VALID,24.558,VALID,109,VALID,0.0546875,
2012-07-18, 02:43:04,VALID,1000.24,VALID,0,VALID,87.3363,VALID,0.104696,VALID,24.519,VALID,109,VALID,0,
2012-07-18, 02:44:04,VALID,1000.26,VALID,0,VALID,87.176,VALID,0,VALID,24.5209,VALID,109,VALID,0,
2012-07-18, 02:45:04,VALID,1000.26,VALID,0,VALID,89.0834,VALID,0,VALID,24.4995,VALID,351,VALID,0.663672,
2012-07-18, 02:46:04,VALID,1000.23,VALID,0,VALID,90.06,VALID,0,VALID,24.4214,VALID,334,VALID,0.595312,
2012-07-18, 02:47:04,VALID,1000.22,VALID,0,VALID,90.5331,VALID,0.104696,VALID,24.3433,VALID,334,VALID,0.681641,
2012-07-18, 02:48:04,VALID,1000.21,VALID,0,VALID,90.4644,VALID,0,VALID,24.2653,VALID,334,VALID,0.692578,
2012-07-18, 02:49:04,VALID,1000.21,VALID,0,VALID,90.6323,VALID,0,VALID,24.2671,VALID,330,VALID,0.714063,
2012-07-18, 02:50:04,VALID,1000.22,VALID,0,VALID,90.6933,VALID,0,VALID,24.2458,VALID,330,VALID,0.361328,
2012-07-18, 02:51:04,VALID,1000.19,VALID,0,VALID,90.8993,VALID,0,VALID,24.2476,VALID,330,VALID,0.239844,
2012-07-18, 02:52:04,VALID,1000.17,VALID,0,VALID,91.174,VALID,0,VALID,24.2263,VALID,330,VALID,0.339063,
2012-07-18, 02:53:04,VALID,1000.16,VALID,0,VALID,91.2655,VALID,0,VALID,24.2086,VALID,330,VALID,0.326562,
2012-07-18, 02:54:04,VALID,1000.17,VALID,0,VALID,91.2426,VALID,0,VALID,24.1677,VALID,330,VALID,0.432422,
2012-07-18, 02:55:04,VALID,1000.23,VALID,0,VALID,90.9222,VALID,0,VALID,24.1482,VALID,330,VALID,0.192969,
2012-07-18, 02:56:04,VALID,1000.21,VALID,0,VALID,90.6399,VALID,0,VALID,24.1677,VALID,330,VALID,0.295703,
2012-07-18, 02:57:04,VALID,1000.24,VALID,0,VALID,91.0214,VALID,0,VALID,24.2067,VALID,330,VALID,0.0738281,
2012-07-18, 02:58:04,VALID,1000.26,VALID,0,VALID,91.1816,VALID,0,VALID,24.2086,VALID,330,VALID,0,
2012-07-18, 02:59:04,VALID,1000.26,VALID,0,VALID,91.1968,VALID,0,VALID,24.1891,VALID,330,VALID,0,
2012-07-18, 03:00:04,VALID,1000.27,VALID,0,VALID,91.0443,VALID,0,VALID,24.1482,VALID,330,VALID,0,
2012-07-18, 03:01:04,VALID,1000.27,VALID,0,VALID,91.0824,VALID,0,VALID,24.15,VALID,330,VALID,0,
2012-07-18, 03:02:04,VALID,1000.29,VALID,0,VALID,91.5097,VALID,0,VALID,24.15,VALID,330,VALID,0,
2012-07-18, 03:03:04,VALID,1000.28,VALID,0,VALID,91.792,VALID,0,VALID,24.15,VALID,330,VALID,0.265625,
2012-07-18, 03:04:04,VALID,1000.28,VALID,0,VALID,91.9522,VALID,0,VALID,24.1305,VALID,330,VALID,0.365234,
2012-07-18, 03:05:04,VALID,1000.29,VALID,0,VALID,92.1429,VALID,0,VALID,24.0701,VALID,330,VALID,0.629687,
2012-07-18, 03:06:04,VALID,1000.27,VALID,0,VALID,92.4176,VALID,0,VALID,24.0525,VALID,330,VALID,0.400391,
2012-07-18, 03:07:04,VALID,1000.28,VALID,0,VALID,92.6999,VALID,0,VALID,24.0134,VALID,330,VALID,0.38125,
2012-07-18, 03:08:04,VALID,1000.28,VALID,0,VALID,92.8525,VALID,0,VALID,23.9336,VALID,330,VALID,0.424219,
2012-07-18, 03:09:04,VALID,1000.33,VALID,0,VALID,93.0051,VALID,0,VALID,23.875,VALID,330,VALID,0.530469,
2012-07-18, 03:10:04,VALID,1000.3,VALID,0,VALID,93.2416,VALID,0,VALID,23.8165,VALID,330,VALID,0.489844,
2012-07-18, 03:11:04,VALID,1000.33,VALID,0,VALID,93.5773,VALID,0,VALID,23.7793,VALID,360,VALID,0.683594,
2012-07-18, 03:12:04,VALID,1000.31,VALID,0,VALID,93.9206,VALID,0,VALID,23.7597,VALID,18,VALID,0.603906,
2012-07-18, 03:13:04,VALID,1000.3,VALID,0,VALID,94.1114,VALID,0,VALID,23.7207,VALID,18,VALID,0.673437,
2012-07-18, 03:14:04,VALID,1000.27,VALID,0,VALID,94.1495,VALID,0,VALID,23.6817,VALID,18,VALID,0.525781,
2012-07-18, 03:15:04,VALID,1000.26,VALID,0,VALID,94.1037,VALID,0,VALID,23.6835,VALID,18,VALID,0.438672,
2012-07-18, 03:16:04,VALID,1000.24,VALID,0,VALID,94.0351,VALID,0,VALID,23.6232,VALID,18,VALID,0.439844,
2012-07-18, 03:17:04,VALID,1000.18,VALID,0,VALID,93.974,VALID,0,VALID,23.6232,VALID,18,VALID,0.388672,
2012-07-18, 03:18:04,VALID,1000.18,VALID,0,VALID,94.0045,VALID,0,VALID,23.6036,VALID,18,VALID,0.455859,
2012-07-18, 03:19:04,VALID,1000.2,VALID,0,VALID,94.0503,VALID,0,VALID,23.5841,VALID,18,VALID,0.632422,
2012-07-18, 03:20:04,VALID,1000.21,VALID,0,VALID,94.0808,VALID,0,VALID,23.5664,VALID,18,VALID,0.496094,
2012-07-18, 03:21:04,VALID,1000.21,VALID,0,VALID,94.1266,VALID,0,VALID,23.5061,VALID,18,VALID,0.0675781,
2012-07-18, 03:22:04,VALID,1000.24,VALID,0,VALID,94.1953,VALID,0,VALID,23.5079,VALID,18,VALID,0.404687,
2012-07-18, 03:23:04,VALID,1000.22,VALID,0,VALID,94.3403,VALID,0,VALID,23.4671,VALID,18,VALID,0.314453,
2012-07-18, 03:24:04,VALID,1000.23,VALID,0,VALID,94.47,VALID,0,VALID,23.4671,VALID,18,VALID,0.646094,
2012-07-18, 03:25:04,VALID,1000.21,VALID,0,VALID,94.4928,VALID,0,VALID,23.4493,VALID,18,VALID,0.719922,
2012-07-18, 03:26:04,VALID,1000.22,VALID,0,VALID,94.531,VALID,0,VALID,23.4085,VALID,18,VALID,0.749219,
2012-07-18, 03:27:04,VALID,1000.2,VALID,0,VALID,94.6531,VALID,0,VALID,23.389,VALID,18,VALID,0.7875,
2012-07-18, 03:28:04,VALID,1000.19,VALID,0,VALID,94.8209,VALID,0,VALID,23.4085,VALID,18,VALID,0.841406,
2012-07-18, 03:29:04,VALID,1000.16,VALID,0,VALID,94.9277,VALID,0,VALID,23.4085,VALID,18,VALID,0.751172,
2012-07-18, 03:30:04,VALID,1000.14,VALID,0,VALID,94.9506,VALID,0,VALID,23.3908,VALID,18,VALID,0.845703,
2012-07-18, 03:31:04,VALID,1000.13,VALID,0,VALID,94.9354,VALID,0,VALID,23.35,VALID,18,VALID,0.613672,
2012-07-18, 03:32:04,VALID,1000.12,VALID,0,VALID,94.943,VALID,0,VALID,23.311,VALID,18,VALID,0.43125,
2012-07-18, 03:33:04,VALID,1000.12,VALID,0,VALID,94.9964,VALID,0,VALID,23.2915,VALID,18,VALID,0.394922,
2012-07-18, 03:34:04,VALID,1000.12,VALID,0,VALID,95.1032,VALID,0,VALID,23.2915,VALID,18,VALID,0.0882813,
2012-07-18, 03:35:04,VALID,1000.11,VALID,0,VALID,95.149,VALID,0,VALID,23.2897,VALID,18,VALID,0,
2012-07-18, 03:36:04,VALID,1000.1,VALID,0,VALID,95.1871,VALID,0,VALID,23.2702,VALID,18,VALID,0,
2012-07-18, 03:37:04,VALID,1000.11,VALID,0,VALID,95.2177,VALID,0,VALID,23.2702,VALID,18,VALID,0,
2012-07-18, 03:38:04,VALID,1000.12,VALID,0,VALID,95.2787,VALID,0,VALID,23.2507,VALID,18,VALID,0,
2012-07-18, 03:39:04,VALID,1000.11,VALID,0,VALID,95.3092,VALID,0,VALID,23.2507,VALID,18,VALID,0,
2012-07-18, 03:40:04,VALID,1000.11,VALID,0,VALID,95.3397,VALID,0,VALID,23.2702,VALID,18,VALID,0,
2012-07-18, 03:41:04,VALID,1000.13,VALID,0,VALID,95.416,VALID,0,VALID,23.2915,VALID,18,VALID,0.483984,
2012-07-18, 03:42:04,VALID,1000.15,VALID,0,VALID,95.4313,VALID,0,VALID,23.2897,VALID,88,VALID,0.784375,
2012-07-18, 03:43:04,VALID,1000.12,VALID,0,VALID,95.4771,VALID,0,VALID,23.2897,VALID,88,VALID,0.682031,
2012-07-18, 03:44:04,VALID,1000.12,VALID,0,VALID,95.5076,VALID,0,VALID,23.3092,VALID,88,VALID,0.675391,
2012-07-18, 03:45:04,VALID,1000.11,VALID,0,VALID,95.5152,VALID,0,VALID,23.3074,VALID,88,VALID,0.587109,
2012-07-18, 03:46:04,VALID,1000.07,VALID,0,VALID,95.5,VALID,0,VALID,23.3287,VALID,88,VALID,0.438281,